Location: Arborea
(39.7744°N, 8.5819°E)
Time: 02:14:15
(UTC+00:00)

CZ-2C R/B - Pass Details

Date: 24 October 2021
Orbit: 388 x 573 km, 35.0° (Epoch: 29 November)

Event Time Altitude Azimuth Distance (km) Brightness Sun altitude
Rises 18:41:26 0° 262° (W) 2,470 5.9 -25.2°
Reaches altitude 10° 18:44:43 10° 231° (SW) 1,543 4.2 -25.8°
Enters shadow 18:45:52 12° 212° (SSW) 1,406 3.7 -26.1°
